WB5LFS-1 Weather Reports


time (UTC)temp
C
wind
direction
speed
KPH
gust
KPH
rain 1hr
cm
rain 24hr
cm
rain mn
cm
humidity
%
barometer
mb
20260507135645 13 288 0.0 0.0 0.00 0.46 0.36 90 1011.7
20260507134145 13 273 0.0 3.2 0.00 0.46 0.36 91 1011.5
20260507132645 13 259 0.0 0.0 0.00 0.46 0.36 92 1011.4
20260507131145 13 282 0.0 0.0 0.03 0.46 0.36 92 1011.5
20260507125645 13 105 0.0 0.0 0.03 0.46 0.36 92 1011.4
20260507124145 13 105 0.0 1.6 0.05 0.46 0.36 92 1011.1
20260507122645 13 256 0.0 1.6 0.05 0.46 0.36 92 1011.3
20260507121145 13 0 0.0 3.2 0.03 0.43 0.33 92 1011.2
20260507115645 13 15 0.0 6.4 0.08 0.43 0.33 92 1011.3
20260507114145 13 100 0.0 3.2 0.08 0.41 0.30 92 1010.9
20260507112645 14 33 0.0 0.0 0.08 0.41 0.30 92 1011.2
20260507111145 14 309 0.0 3.2 0.13 0.41 0.30 92 1011.0
20260507105645 14 279 0.0 0.0 0.08 0.36 0.25 92 1010.8
20260507104145 15 73 0.0 3.2 0.05 0.33 0.23 92 1010.4
20260507102645 15 310 0.0 3.2 0.05 0.33 0.23 92 1010.4
20260507101146 15 13 0.0 3.2 0.03 0.28 0.18 91 1010.4
20260507095645 15 315 0.0 4.8 0.13 0.28 0.18 91 1010.3
20260507094145 15 273 1.6 6.4 0.18 0.28 0.18 91 1010.2
20260507092645 16 286 3.2 19.3 0.18 0.28 0.18 89 1010.0
20260507091145 18 311 0.0 14.5 0.15 0.25 0.15 93 1009.7
20260507085645 18 290 0.0 0.0 0.05 0.15 0.05 92 1009.3
20260507084145 18 290 0.0 0.0 0.00 0.10 0.00 91 1009.2
20260507082645 19 290 0.0 0.0 0.00 0.10 0.00 91 1009.1
20260507081145 19 290 0.0 0.0 0.00 0.10 0.00 90 1009.2
20260507075645 19 290 0.0 0.0 0.00 0.10 0.00 89 1009.0
20260507074145 19 285 0.0 3.2 0.00 0.10 0.00 89 1009.2
20260507072645 19 246 0.0 1.6 0.00 0.10 0.00 88 1009.2
20260507071145 19 287 0.0 0.0 0.00 0.10 0.00 88 1009.1
20260507065645 19 22 0.0 3.2 0.00 0.10 0.00 89 1008.8
20260507064145 19 205 0.0 4.8 0.00 0.10 0.00 89 1008.9
20260507062645 20 65 0.0 0.0 0.00 0.10 0.00 88 1008.6
20260507061145 20 136 0.0 0.0 0.00 0.10 0.00 87 1008.7
20260507055646 20 128 0.0 3.2 0.00 0.10 0.00 85 1009.4
20260507054146 20 125 0.0 0.0 0.00 0.10 0.00 83 1009.6
20260507052646 20 177 0.0 3.2 0.00 0.10 0.00 83 1009.8
20260507051146 21 252 0.0 6.4 0.00 0.10 0.00 82 1010.2
20260507045646 20 0 0.0 0.0 0.00 0.10 0.00 81 1010.2
20260507044146 21 158 0.0 0.0 0.00 0.10 0.00 80 1010.2
20260507042646 20 0 0.0 0.0 0.00 0.10 0.00 81 1010.1
20260507041146 20 140 0.0 1.6 0.00 0.10 0.00 82 1009.9
20260507035646 20 0 0.0 0.0 0.00 0.10 0.10 83 1010.0
20260507034146 20 0 0.0 0.0 0.00 0.10 0.10 83 1010.1
20260507032646 20 0 0.0 3.2 0.00 0.10 0.10 84 1010.0
20260507031146 19 0 0.0 0.0 0.00 0.10 0.10 84 1009.9
20260507025646 19 0 0.0 0.0 0.00 0.10 0.10 84 1010.0
20260507024146 19 0 0.0 0.0 0.00 0.10 0.10 85 1010.1
20260507022646 19 0 0.0 0.0 0.00 0.10 0.10 85 1010.2
20260507021146 19 0 0.0 0.0 0.00 0.10 0.10 84 1010.2
20260507015646 19 0 0.0 0.0 0.00 0.10 0.10 83 1010.2
20260507014146 19 0 0.0 0.0 0.00 0.10 0.10 83 1010.2
20260507012646 20 0 0.0 0.0 0.00 0.10 0.10 82 1010.4
20260507011146 20 0 0.0 0.0 0.00 0.10 0.10 80 1010.3
20260507005646 20 0 0.0 0.0 0.00 0.10 0.10 79 1010.1
20260507004146 21 0 0.0 0.0 0.00 0.10 0.10 78 1010.2
20260507002646 21 0 0.0 0.0 0.00 0.10 0.10 78 1010.1
20260507001146 21 0 0.0 0.0 0.00 0.10 0.10 77 1010.0
20260506235646 21 0 0.0 0.0 0.00 0.10 0.10 76 1010.0
20260506234146 22 0 0.0 0.0 0.00 0.10 0.10 74 1009.9
20260506232646 22 261 0.0 0.0 0.00 0.10 0.10 73 1009.8
20260506231146 22 194 0.0 0.0 0.00 0.10 0.10 73 1009.8
20260506225646 22 252 0.0 3.2 0.00 0.10 0.10 74 1009.6
20260506224146 22 237 0.0 3.2 0.00 0.10 0.10 72 1009.5
20260506222646 22 324 0.0 3.2 0.00 0.10 0.10 72 1009.6
20260506221146 23 153 0.0 4.8 0.00 0.10 0.10 70 1009.7
20260506215646 23 317 0.0 3.2 0.00 0.10 0.10 71 1009.9
20260506214146 22 297 0.0 0.0 0.00 0.10 0.10 71 1009.9
20260506212646 22 0 0.0 1.6 0.00 0.10 0.10 72 1009.6
20260506211146 22 309 0.0 3.2 0.00 0.10 0.10 70 1009.9
20260506205646 23 292 0.0 0.0 0.00 0.10 0.10 71 1009.9
20260506204146 22 279 0.0 9.7 0.00 0.10 0.10 69 1009.6
20260506202646 22 281 0.0 1.6 0.00 0.10 0.10 72 1009.4
20260506201146 22 199 0.0 1.6 0.00 0.10 0.10 73 1009.1
20260506195646 22 167 1.6 9.7 0.00 0.10 0.10 72 1009.5
20260506194146 22 69 0.0 3.2 0.00 0.10 0.10 72 1009.7
20260506192646 21 0 0.0 0.0 0.00 0.10 0.10 74 1009.9
20260506191146 21 0 0.0 12.9 0.00 0.10 0.10 78 1010.3
20260506185646 20 0 0.0 3.2 0.00 0.10 0.10 78 1010.9
20260506184146 20 0 0.0 3.2 0.00 0.10 0.10 80 1011.1
20260506182646 20 0 0.0 0.0 0.00 0.10 0.10 81 1011.4
20260506181146 21 213 0.0 0.0 0.00 0.10 0.10 77 1011.5
20260506175646 21 229 0.0 0.0 0.00 0.10 0.10 72 1011.5
20260506174146 20 163 1.6 14.5 0.00 0.10 0.10 75 1011.4
20260506172646 20 0 0.0 3.2 0.00 0.10 0.10 80 1011.5
20260506171146 20 0 0.0 14.5 0.00 0.10 0.10 78 1011.3
20260506165646 18 0 0.0 14.5 0.00 0.10 0.10 82 1011.6
20260506164146 18 0 0.0 3.2 0.05 0.10 0.10 85 1012.1
20260506162646 18 0 0.0 1.6 0.08 0.10 0.10 87 1012.1
20260506161146 17 0 0.0 0.0 0.08 0.10 0.10 89 1012.3
20260506155646 17 0 0.0 0.0 0.08 0.10 0.10 86 1012.5
20260506154146 17 0 0.0 0.0 0.05 0.05 0.05 86 1012.9
20260506152646 18 0 0.0 0.0 0.03 0.03 0.03 85 1013.3
20260506151147 18 0 0.0 0.0 0.03 0.03 0.03 83 1013.4
20260506145647 18 0 0.0 0.0 0.03 0.03 0.03 80 1013.4
20260506144147 20 0 1.6 14.5 0.00 0.00 0.00 73 1013.6
20260506142647 20 0 0.0 3.2 0.00 0.00 0.00 71 1012.8
20260506141147 19 0 1.6 12.9 0.00 0.00 0.00 73 1012.7